Groton, CT

10:54 PM EDT on July 27, 2017 (GMT -0400)
Groton-New London

Weather History for KGON - November, 2013

Change the Weather History Date:

Friday, November 1, 2013

  Actual Average Record
Temperature  
Mean Temperature 64 °F -  
Max Temperature 68 °F 58 °F 75 °F (1982)
Min Temperature 61 °F 39 °F 26 °F (1968)
Degree Days  
Heating Degree Days 2    
Growing Degree Days 14 (Base 50)    
Moisture  
Dew Point 59 °F    
Average Humidity 87    
Maximum Humidity 94    
Minimum Humidity 78    
Precipitation  
Precipitation 0.06 in - - ()
Sea Level Pressure  
Sea Level Pressure 29.66 in    
Wind  
Wind Speed 19 mph (SW)    
Max Wind Speed 31 mph    
Max Gust Speed 44 mph    
Visibility 7 miles    
Events Rain    
Averages and records for this station are not official NWS values.
T = Trace of Precipitation, MM = Missing Value Source: NWS Daily Summary

Daily Weather History Graph

Daily Weather History Graph

Search for Another Location

Airport or City:

Trip Planner

Search our weather history database for the weather conditions in past years. The results will help you decide how hot, cold, wet, or windy it might be!

Date:

Astronomy

Nov. 01, 2013 Rise Set
Actual Time 7:19 AM EDT 5:43 PM EDT
Civil Twilight 6:51 AM EDT 6:11 PM EDT
Nautical Twilight 6:18 AM EDT 6:44 PM EDT
Astronomical Twilight 5:46 AM EDT 7:16 PM EDT
Moon 5:07 AM EDT (11/1) 4:35 PM EDT (11/1)
Length of Visible Light 11h 20m
Length of Day
10h 23m
Waning Crescent, 4% of the Moon is Illuminated
Nov 1
Waning Crescent
Nov 3
New
Nov 10
First Quarter
Nov 17
Full
Nov 25
Last Quarter

Hourly Weather History & Observations

Time (EDT) Temp. Dew Point Humidity Pressure Visibility Wind Dir Wind Speed Gust Speed Precip Events Conditions
12:09 AM 64.4 °F 60.8 °F 88% 29.83 in 8.0 mi SSW 21.9 mph 28.8 mph 0.00 in Rain Light Rain
12:56 AM 64.0 °F 61.0 °F 90% 29.82 in 6.0 mi SW 24.2 mph 34.5 mph 0.00 in Rain Light Rain
1:42 AM 62.6 °F 60.8 °F 94% 29.80 in 6.0 mi SSW 16.1 mph - 0.01 in Rain Light Rain
1:50 AM 62.6 °F 60.8 °F 94% 29.79 in 7.0 mi SW 15.0 mph - 0.01 in Rain Light Rain
1:56 AM 63.0 °F 61.0 °F 93% 29.79 in 8.0 mi SSW 16.1 mph - 0.01 in Rain Light Rain
2:56 AM 63.0 °F 61.0 °F 93% 29.76 in 6.0 mi SSW 15.0 mph - 0.00 in   Mostly Cloudy
3:34 AM 62.6 °F 60.8 °F 94% 29.73 in 6.0 mi SSW 15.0 mph - N/A   Scattered Clouds
3:56 AM 63.0 °F 61.0 °F 93% 29.73 in 6.0 mi SSW 19.6 mph - N/A   Partly Cloudy
4:56 AM 63.0 °F 60.1 °F 90% 29.70 in 7.0 mi SSW 19.6 mph - N/A   Mostly Cloudy
5:56 AM 64.9 °F 61.0 °F 87% 29.68 in 7.0 mi SSW 27.6 mph 33.4 mph N/A   Overcast
6:56 AM 64.9 °F 61.0 °F 87% 29.66 in 7.0 mi SSW 21.9 mph 28.8 mph N/A   Overcast
7:56 AM 66.0 °F 61.0 °F 84% 29.65 in 6.0 mi SSW 27.6 mph 33.4 mph 0.00 in   Haze
8:56 AM 66.0 °F 61.0 °F 84% 29.65 in 5.0 mi SSW 23.0 mph 31.1 mph N/A   Haze
9:56 AM 66.0 °F 62.1 °F 87% 29.60 in 5.0 mi SSW 29.9 mph 39.1 mph N/A   Overcast
10:56 AM 66.9 °F 62.1 °F 84% 29.58 in 6.0 mi SSW 28.8 mph 43.7 mph 0.00 in Rain Light Rain
11:48 AM 64.4 °F 62.6 °F 94% 29.59 in 2.0 mi SW 31.1 mph 43.7 mph 0.02 in Rain Light Rain
11:56 AM 64.9 °F 62.1 °F 90% 29.62 in 1.5 mi WSW 23.0 mph 40.3 mph 0.04 in Rain Light Rain
12:06 PM 64.4 °F 60.8 °F 88% 29.62 in 2.0 mi SW 19.6 mph 31.1 mph 0.01 in Rain Light Rain
12:14 PM 62.6 °F 60.8 °F 94% 29.61 in 5.0 mi SW 15.0 mph 28.8 mph 0.01 in   Overcast
12:56 PM 63.0 °F 60.1 °F 90% 29.61 in 7.0 mi WSW 11.5 mph - 0.01 in   Overcast
1:56 PM 64.0 °F 57.0 °F 78% 29.58 in 8.0 mi SW 18.4 mph 24.2 mph N/A   Overcast
2:56 PM 63.0 °F 57.0 °F 81% 29.56 in 8.0 mi SSW 18.4 mph - 0.00 in   Overcast
3:56 PM 62.1 °F 57.0 °F 84% 29.56 in 8.0 mi SW 17.3 mph 24.2 mph N/A   Mostly Cloudy
4:56 PM 62.1 °F 57.0 °F 84% 29.57 in 8.0 mi SW 16.1 mph 24.2 mph N/A   Mostly Cloudy
5:56 PM 62.1 °F 57.0 °F 84% 29.58 in 8.0 mi SW 16.1 mph - N/A   Clear
6:56 PM 62.1 °F 57.0 °F 84% 29.61 in 9.0 mi SW 16.1 mph 21.9 mph N/A   Clear
7:56 PM 62.1 °F 55.9 °F 80% 29.62 in 9.0 mi WSW 11.5 mph 20.7 mph N/A   Clear
8:56 PM 62.1 °F 55.9 °F 80% 29.65 in 9.0 mi SW 9.2 mph - N/A   Clear
9:56 PM 61.0 °F 55.9 °F 83% 29.67 in 9.0 mi WSW 4.6 mph - N/A   Clear
10:56 PM 61.0 °F 55.0 °F 81% 29.68 in 9.0 mi West 6.9 mph - N/A   Clear
11:56 PM 62.1 °F 55.9 °F 80% 29.67 in 10.0 mi WSW 5.8 mph - N/A   Clear